OneWeb SL0409

operational
NORAD ID: 50488 Int'l Des: 2021-132 Owner: ONEWEBN Country: UK Constellation: oneweb
LEOCIRCULARPOLARONEWEB_TYPE

About OneWeb SL0409

Description loading...

Live Position

Loading 3D Globe...

Upcoming Passes

Altitude History

Altitude vs Time

uPlot chart will show altitude changes over time

Two-Line Element Set

1 50488U 21132V 25346.93676630 -.00000499 00000-0 -14450-2 0 9994
2 50488 87.8877 58.1297 0001466 113.7213 246.4069 13.11420005191176
Epoch: Dec 12, 2025 • Age: 8 hours

Current Status

Altitude 1226.8 km
Velocity 7.24 km/s
Sub-Earth Point -24.44°S, 54.13°E
Launch Date Dec 27, 2021
Age 3.9 years
Type internet

Technical Details

Classification Payload
Mass 148.00 kg
Dry Mass 140.00 kg
Total Mass 148.00 kg
Length 1.30 m
Diameter 1.00 m
Span 5.00 m
Shape Trapezoid+2 pan
Manufacturer ONEWUS
Bus Type ARROW
Phase Status In Orbit
Owner/State ONEWEBN/UK

Large Constellations

Loading constellations...